Change the Weather History Date:

Saturday, November 17, 2012

  Actual Average Record
Temperature  
Mean Temperature 68 °F -  
Max Temperature 77 °F 76 °F 83 °F (2014)
Min Temperature 58 °F 59 °F 51 °F (1999)
Cooling Degree Days 2    
Growing Degree Days 18 (Base 50)    
Moisture  
Dew Point 60 °F    
Average Humidity 79    
Maximum Humidity 94    
Minimum Humidity 52    
Precipitation  
Precipitation 0.00 in 0.03 in - ()
Sea Level Pressure  
Sea Level Pressure 30.12 in    
Wind  
Wind Speed 7 mph ()    
Max Wind Speed 20 mph    
Max Gust Speed -    
Visibility 6.7 miles    
Events      
Averages and records for this station are not official NWS values.
T = Trace of Precipitation, MM = Missing Value Source: Averaged Metar Reports

Daily Weather History Graph

Daily Weather History Graph

Search for Another Location

Airport or City:

Trip Planner

Search our weather history database for the weather conditions in past years. The results will help you decide how hot, cold, wet, or windy it might be!

Date:

Astronomy

Nov. 17, 2012 Rise Set
Actual Time 5:50 AM CST 5:17 PM CST
Civil Twilight 5:27 AM CST 5:40 PM CST
Nautical Twilight 5:01 AM CST 6:06 PM CST
Astronomical Twilight 4:35 AM CST 6:31 PM CST
Moon 9:34 AM CST (11/17) 9:23 PM CST (11/17)
Length of Visible Light 12h 12m
Length of Day
11h 27m
Waxing Crescent, 20% of the Moon is Illuminated
Nov 17
Waxing Crescent
Nov 20
First Quarter
Nov 28
Full
Dec 6
Last Quarter
Dec 13
New

Hourly Weather History & Observations

Time (CST) Temp. Dew Point Humidity Pressure Visibility Wind Dir Wind Speed Gust Speed Precip Events Conditions
12:00 AM 63 °F 59 °F 81% 30.02 in 6 mi North 4.6 mph - -   Haze
12:00 AM 62.6 °F 59.0 °F 88% 30.12 in 6.2 mi North 4.6 mph - N/A   Scattered Clouds
1:00 AM 60.8 °F 59.0 °F 94% 30.15 in 6.2 mi North 4.6 mph - N/A   Scattered Clouds
3:00 AM 61 °F 59 °F 92% 30.03 in 6 mi North 3.5 mph - -   Haze
3:00 AM 62.6 °F 59.0 °F 88% 30.12 in 6.2 mi North 5.8 mph - N/A   Scattered Clouds
4:00 AM 62.6 °F 59.0 °F 88% 30.15 in 6.2 mi North 2.3 mph - N/A   Mostly Cloudy
5:00 AM 60.8 °F 59.0 °F 94% 30.15 in 6.2 mi North 5.8 mph - N/A   Partly Cloudy
6:00 AM 60 °F 58 °F 93% 30.07 in 10 mi North 4.6 mph - -   Haze
6:00 AM 60.8 °F 59.0 °F 94% 30.15 in 6.2 mi North 4.6 mph - N/A   Partly Cloudy
7:00 AM 62.6 °F 59.0 °F 88% 30.18 in 6.2 mi North 8.1 mph - N/A   Scattered Clouds
8:00 AM 64.4 °F 60.8 °F 88% 30.18 in 6.2 mi NE 9.2 mph - N/A   Scattered Clouds
9:00 AM 70 °F 62 °F 67% 30.07 in 11 mi North 9.2 mph - -   Haze
9:00 AM 69.8 °F 60.8 °F 73% 30.18 in 6.2 mi North 9.2 mph - N/A   Scattered Clouds
10:00 AM 73.4 °F 60.8 °F 65% 30.18 in 6.2 mi North 13.8 mph - N/A   Scattered Clouds
11:00 AM 75.2 °F 60.8 °F 61% 30.18 in 6.2 mi North 13.8 mph - N/A   Scattered Clouds
12:00 PM 76 °F 62 °F 52% 29.96 in 11 mi North 16.1 mph - -   Haze
12:00 PM 75.2 °F 62.6 °F 65% 30.15 in 6.2 mi North 16.1 mph - N/A   Scattered Clouds
1:00 PM 75.2 °F 60.8 °F 61% 30.12 in 6.2 mi North 11.5 mph - N/A   Scattered Clouds
2:00 PM 77.0 °F 62.6 °F 61% 30.12 in 6.2 mi North 16.1 mph - N/A   Scattered Clouds
3:00 PM 74 °F 61 °F 55% 29.92 in 9 mi North 19.6 mph - -   Haze
3:00 PM 75.2 °F 62.6 °F 65% 30.12 in 6.2 mi North 19.6 mph - N/A   Scattered Clouds
4:00 PM 71.6 °F 60.8 °F 69% 30.12 in 6.2 mi North 18.4 mph - N/A   Mostly Cloudy
5:00 PM 69.8 °F 62.6 °F 78% 30.12 in 6.2 mi North 15.0 mph - N/A   Scattered Clouds
6:00 PM 66 °F 60 °F 75% 30.01 in 6 mi North 11.5 mph - -   Haze
6:00 PM 66.2 °F 60.8 °F 83% 30.12 in 6.2 mi North 11.5 mph - N/A   Scattered Clouds
7:00 PM 64.4 °F 60.8 °F 88% 30.18 in 6.2 mi North 10.4 mph - N/A   Scattered Clouds
8:00 PM 64.4 °F 60.8 °F 88% 30.18 in 6.2 mi North 6.9 mph - N/A   Partly Cloudy
9:00 PM 63 °F 60 °F 87% 30.07 in 6 mi North 6.9 mph - -   Haze
9:00 PM 62.6 °F 60.8 °F 94% 30.18 in 6.2 mi North 6.9 mph - N/A   Partly Cloudy
10:00 PM 60.8 °F 59.0 °F 94% 30.18 in 6.2 mi North 5.8 mph - N/A   Partly Cloudy
11:00 PM 60.8 °F 59.0 °F 94% 30.18 in 6.2 mi NNW 6.9 mph - N/A   Partly Cloudy